Tracking 20712 objects as of 29-May-2020
HD Live streaming from Space Station
objects crossing your sky now

IRIDIUM 33 DEB

Track IRIDIUM 33 DEB now!
10-day predictions


NORAD ID: 35800
Int'l Code: 1997-051SJ
Perigee: 552.9 km
Apogee: 588.8 km
Inclination: 86.3 °
Period: 95.9 minutes
Semi major axis: 6941 km
RCS: 0.0103 m2 (small)
Launch date: September 14, 1997
Source: United States (US)
Launch site: TYURATAM MISSILE AND SPACE COMPLEX (TTMTR)

Note: This is SATELLITE DEBRIS
aabbcc
Your satellite tracking list
Your tracking list is empty




NASA's NSSDC Master Catalog

Two Line Element Set (TLE):
1 35800U 97051SJ  20149.96049449  .00005093  00000-0  39370-3 0  9991
2 35800  86.2607  34.5501 0025816  19.4820 340.7393 15.01028816593492
Source of the keplerian elements: AFSPC